Location: Demre
(36.2444°N, 29.9850°E)
Time: 10:17:05
(UTC+00:00)

Daily predictions for brighter satellites

Satellite Brightness Start Highest point End
(mag) Time Altitude Azimuth Time Altitude Azimuth Time Altitude Azimuth
Cosmos 1626 Rocket 4.1 16:19:48 10° SSW 16:24:10 66° W 16:28:35 10° N
Okean 1-7 Rocket 4.0 16:26:44 10° SSE 16:30:59 43° E 16:35:17 10° NNE
Meteor 2-20 4.4 16:26:42 10° N 16:32:53 76° E 16:39:01 10° S
Cosmos 2151 3.0 16:31:16 10° S 16:35:19 81° W 16:39:24 10° N
Cosmos 1271 Rocket 4.0 16:33:41 10° NNE 16:36:01 17° ENE 16:38:20 10° ESE
Cosmos 1992 Rocket 4.1 16:33:52 10° N 16:38:58 52° ENE 16:44:01 10° SE
Cosmos 1140 Rocket 4.0 16:35:21 10° SSE 16:40:03 36° E 16:44:47 10° NE
SAR-Lupe-1 4.3 16:38:05 10° S 16:41:36 72° WSW 16:45:10 10° NNW
COSMO-SKYMED 1 2.9 16:39:23 10° N 16:43:28 66° WNW 16:47:30 10° SSW
Helios 1A Rocket 3.6 16:45:27 10° NE 16:48:01 21° E 16:50:33 10° SSE
CARTOSAT-1 3.4 16:46:47 10° SSE 16:50:58 85° E 16:55:11 10° N
Cosmos 1842 2.8 16:47:55 10° N 16:51:09 81° W 16:54:22 10° S
Meteor 1-5 Rocket 4.5 16:45:37 10° SSE 16:51:21 52° E 16:57:01 10° NNE
Cosmos 2278 Rocket 3.8 16:46:28 10° SW 16:51:41 38° WNW 16:56:57 10° N
BREEZE-M DEB (TANK) 2.0 16:51:04 10° W 16:52:26 35° NNW 16:53:48 13° NE
Cosmos 1867 3.9 16:47:21 10° NNW 16:52:36 46° NE 16:57:49 10° SE
CZ-4C R/B 3.5 16:46:06 10° NNW 16:53:03 43° NE 17:01:11 11° ESE
Cosmos 2082 Rocket 2.3 16:48:05 10° NNW 16:53:42 55° ENE 16:59:16 10° SE
Spot 4 Rocket 4.0 16:49:00 10° SSE 16:54:06 90° W 16:59:12 10° NNW
Cosmos 1953 Rocket 4.2 16:50:47 10° SSE 16:54:34 32° E 16:58:23 10° NNE
USA 267 3.9 16:51:56 10° ENE 16:57:40 32° SE 17:03:22 10° S
YAOGAN 1 4.1 17:00:29 10° SSW 17:04:27 39° W 17:08:27 10° NNW
SPOT 5 3.8 17:03:06 12° SE 17:07:18 32° ENE 17:11:56 10° N
Cosmos 2369 Rocket 2.7 17:04:41 10° SSE 17:09:48 36° ESE 17:14:56 10° NE
Meteor 2-10 4.1 17:05:20 10° S 17:10:39 57° E 17:15:50 10° NNE
ISS -3.8 17:07:50 10° SW 17:11:14 87° SE 17:13:22 21° NE
Cosmos 1269 Rocket 3.9 17:06:30 10° S 17:11:44 73° ESE 17:17:00 10° NNE
COBE Rocket 3.8 17:08:43 10° NNE 17:13:14 51° E 17:17:46 10° S
SL-19 R/B 4.3 17:08:17 10° SSE 17:13:56 83° WSW 17:19:19 10° NNW
Hubble Space Telescope 2.2 17:11:13 10° SW 17:14:05 21° S 17:15:12 18° SE
SeaSat 1 3.8 17:13:40 19° ENE 17:14:31 20° NE 17:17:59 10° N
NOSS 2-3 (D) 3.5 17:11:04 10° S 17:14:45 40° ESE 17:16:18 26° ENE
NOAA 6 4.5 17:10:49 10° S 17:15:55 64° WSW 17:21:03 10° NNW
SL-24 DEB 4.1 17:11:55 10° NNE 17:16:25 60° E 17:20:54 10° S
Meteor 2-4 Rocket 3.8 17:11:15 10° N 17:16:34 50° ENE 17:21:44 10° SSE
NOSS 3-2 (C) 2.9 17:12:55 10° SSW 17:17:42 89° ESE 17:23:13 10° NNE
Cosmos 1553 Rocket 3.9 17:14:13 10° N 17:20:19 64° E 17:26:27 10° SSE
ODIN 4.5 17:20:16 25° SSE 17:21:52 69° ENE 17:24:54 10° N
Cosmos 2297 3.9 17:20:44 10° S 17:26:02 45° ESE 17:31:23 10° NE
Cosmos 921 Rocket 3.5 17:22:23 10° SSW 17:26:28 59° WNW 17:30:38 10° N
CZ-4 R/B 2.4 17:27:53 27° NE 17:27:53 27° NE 17:30:28 10° N
SL-4 R/B 2.4 17:26:35 10° NNW 17:29:11 31° NNE 17:29:11 31° NNE
Meteor 1-27 Rocket 3.9 17:23:59 10° N 17:29:54 83° W 17:35:50 10° S
IRAS Rocket 4.2 17:24:57 10° SSE 17:30:33 75° ENE 17:36:09 10° N
Cosmos 1656 Rocket 4.1 17:25:54 10° SSW 17:31:23 64° WNW 17:36:50 10° NNE
Haruka 4.1 17:29:33 10° W 17:33:10 23° SSW 17:34:38 18° SSE
Cosmos 1076 Rocket 3.9 17:32:10 10° SSW 17:36:18 61° W 17:40:27 10° N
Cosmos 1805 4.4 17:38:05 10° SSW 17:41:08 36° W 17:44:13 10° N
SL-24 R/B - RUBIN 2 3.7 17:37:30 10° SSW 17:42:40 74° ESE 17:45:18 26° NE
Cosmos 2266 Rocket 3.9 17:39:57 10° S 17:46:07 71° E 17:52:26 10° N
Cosmos 2263 4.1 17:43:56 10° S 17:49:30 59° ESE 17:55:03 10° NNE
COSMOS 2406 3.1 17:45:07 10° NNW 17:50:54 81° ENE 17:53:16 37° SSE
Intelsat 5-1 Rocket 4.1 17:51:30 10° WSW 17:55:02 16° SSW 17:55:46 16° S
DELTA 2 R/B (1) 3.7 17:50:26 10° SW 17:55:49 53° SSE 17:56:06 52° SE
Cosmos 1842 Rocket 3.4 17:53:54 10° N 17:58:05 83° NNE 17:58:05 83° NNE
Cosmos 1238 Rocket 3.9 17:56:04 10° NNW 17:58:49 31° W 17:58:49 31° W
Meteor 1-31 Rocket 3.6 18:00:02 40° NNW 18:00:02 40° NNW 18:02:24 10° NNW
Resurs 01 Rocket 4.1 17:56:32 10° SW 17:59:53 21° W 18:03:15 10° NW
NOSS 2-3 (C) 4.3 17:57:34 10° SW 17:59:43 33° SW 17:59:43 33° SW
CZ-4B R/B 4.4 18:02:28 48° NW 18:02:28 48° NW 18:05:13 10° NNW
Cosmos 1417 Rocket 4.3 18:02:21 10° N 18:08:36 84° E 18:10:52 42° SSE
S3M 3.9 18:03:42 10° N 18:10:06 73° E 18:11:22 57° SE
CZ-3C R/B 3.7 18:00:30 10° WSW 18:11:39 21° SSW 18:13:25 19° S
Cosmos 407 Rocket 4.1 18:11:57 10° SSW 18:17:09 56° WNW 18:22:24 10° N
CSL-04 Debris 4.5 18:16:42 36° SSW 18:18:49 62° WSW 18:24:09 10° NNW
Terra 3.4 18:24:37 26° N 18:24:37 26° N 18:26:40 10° N
CZ-4B R/B 3.6 18:23:46 48° N 18:23:46 48° N 18:27:39 10° N
ERS-1 Rocket 3.8 18:25:21 41° N 18:25:21 41° N 18:28:33 10° N
CZ-4B DEB 4.3 18:25:12 68° SW 18:25:36 71° WSW 18:31:01 10° NNW
Cosmos 883 Rocket 4.4 18:21:45 10° N 18:27:47 79° NE 18:27:47 79° NE
Milstar 3 Cent rocket 3.7 18:23:34 10° WSW 18:29:50 48° S 18:31:12 45° SSE
Cosmos 1763 Rocket 4.0 18:25:54 10° NNW 18:29:53 53° NNW 18:29:53 53° NNW
MOS 1 4.4 18:33:24 70° NW 18:33:24 70° NW 18:38:25 10° NNW
USA 267 3.6 18:38:13 37° NNE 18:40:50 63° NW 18:47:16 10° WSW
CZ-4C R/B 3.9 18:34:12 10° NW 18:41:35 47° WSW 18:46:13 27° S
USA 238 DEB 4.4 18:40:48 10° SW 18:44:05 35° SW 18:44:05 35° SW
Cosmos 1607 4.4 18:40:47 10° NW 18:46:57 54° WSW 18:47:06 54° WSW
SeaSat 1 3.9 18:53:18 34° WNW 18:53:18 34° WNW 18:56:16 10° NW
Cosmos 2369 Rocket 4.0 18:48:54 10° WSW 18:53:48 29° WNW 18:58:41 10° N
CZ-4 R/B 4.5 19:02:51 12° WNW 19:02:51 12° WNW 19:03:30 10° NW
